Home > Weather > Port Said > Past weeks

Flag for Egypt Weather for the Past 2 Weeks in Port Said, Egypt

Now
70 °F

Sunny.


Feels Like: 70 °F
Forecast: 65 / 75 °F
Wind: 8 mph from West

Location: Port Said Airport

Current Time: May 4, 2016 at 10:20:32 AM

Latest Report: May 4, 2016 at 9:00 AM


Visibility: 10 mi

Pressure: 29.98 "Hg

Humidity: 60%

Dew Point: 55 °F

Location of Port SaidLocation

Historic Weather in Port Said — Graph

°F

Port Said Temperature Yesterday

Maximum temperature yesterday: 81 °F (at 10:00 AM)
Minimum temperature yesterday: 70 °F (at 12:00 AM)
Average temperature yesterday: 75 °F

High & Low Weather Summary for the Past Weeks

 TemperatureHumidityPressure
High99 °F (Apr 26, 1:00 PM)94% (Apr 20, 5:00 AM)30.04 "Hg (Apr 20, 5:00 AM)
Low63 °F (Apr 28, 6:00 AM)24% (Apr 26, 1:00 PM)29.56 "Hg (Apr 24, 9:00 PM)
Average72 °F74%29.89 "Hg
* Reported Apr 19 8:00 AM — May 4 8:00 AM, Port Said, Weather by CustomWeather, © 2016

Note: Actual official high and low records may vary slightly from our data, if they occured in-between our weather recording intervals... More about our weather records

Advertising

Port Said Weather History for the Previous 24 Hours

Scroll right to see more
 ConditionsComfort  
Time TempWeatherWind HumidityBarometerVisibility
8:00 AM
Wed, May 4
70 °FSunny.13 mph64%29.98 "Hg10 mi
7:00 AM70 °FSunny.12 mph60%29.95 "Hg10 mi
6:00 AM68 °FSunny.8 mph73%29.92 "Hg10 mi
5:00 AM70 °FClear.12 mph83%29.89 "Hg10 mi
4:00 AM70 °FClear.23 mph83%29.89 "Hg10 mi
3:00 AM70 °FClear.22 mph83%29.89 "Hg10 mi
2:00 AM70 °FClear.22 mph83%29.89 "Hg10 mi
1:00 AM72 °FClear.23 mph78%29.89 "Hg10 mi
12:00 AM72 °FClear.25 mph83%29.89 "Hg10 mi
11:00 PM
Tue, May 3
75 °FClear.24 mph74%29.89 "Hg10 mi
10:00 PM73 °FClear.20 mph61%29.80 "Hg10 mi
9:00 PM72 °FClear.8 mph83%29.83 "Hg10 mi
8:00 PM72 °FClear.12 mph83%29.86 "Hg10 mi
7:00 PM73 °FClear.12 mph78%29.83 "Hg10 mi
6:00 PM73 °FSunny.15 mph78%29.83 "Hg10 mi
5:00 PM75 °FSunny.14 mph74%29.80 "Hg10 mi
4:00 PM73 °FSunny.18 mph78%29.77 "Hg10 mi
3:00 PM73 °FSunny.23 mph78%29.77 "Hg10 mi
2:00 PM75 °FSunny.23 mph69%29.77 "Hg10 mi
1:00 PM75 °FSunny.23 mph74%29.77 "Hg10 mi
12:00 PM81 °FSunny.8 mph66%29.77 "Hg10 mi
11:00 AM79 °FSunny.8 mph70%29.80 "Hg10 mi
10:00 AM81 °FSunny.12 mph48%29.80 "Hg10 mi
Weather by CustomWeather, © 2016

See weather overviewHow to use our weather pages